INTELSAT 23 (IS-23)

Last updated on Wed Sep 17 2025 00:02:48 GMT+0000 (Coordinated Universal Time)

1 38867U 12057A 25259.50183166 -.00000304 00000+0 00000+0 0 9996 2 38867 0.0430 256.5879 0001526 353.5327 233.2519 1.00271778 47217
UTC large
Height (km)
Speed (km/s)
/
Latitude / Longitude
Inclination (degrees)
Orbital Period (minutes)
Azimuth
Elevation
Range (km)
Doppler Factor

Next 0 passes for location: London (51.5072 / 0.1276)

Sorry there are no passes over London.